Location: *
(50.8512°N, 5.6907°E)
Time: 23:41:44
(UTC+00:00)

Cosmos 1697 Rocket - Pass Details

Date: 09 April 2020
Orbit: 831 x 845 km, 71.0° (Epoch: 24 May)

Event Time Altitude Azimuth Distance (km) Brightness Sun altitude
Rises 19:21:13 0° 332° (NNW) 3,412 6.8 -9.4°
Reaches altitude 10° 19:24:07 10° 345° (NNW) 2,476 5.7 -9.8°
Maximum altitude 19:28:48 26° 40° (NE) 1,629 4.1 -10.5°
Enters shadow 19:33:03 12° 93° (E) 2,351 4.5 -11.1°
